Tracking 31027 objects as of 19-Jul-2025
HD Live streaming from Space Station
objects crossing your sky now

STARLINK-31475

Track STARLINK-31475 now!
10-day predictions
STARLINK-31475 is classified as:


NORAD ID: 59310
Int'l Code: 2024-056Q
Perigee: 489.2 km
Apogee: 491.3 km
Inclination: 43.0 °
Period: 94.3 minutes
Semi major axis: 6861 km
RCS: Unknown
Launch date: March 24, 2024
Source: United States (US)
Launch site: AIR FORCE EASTERN TEST RANGE (AFETR)
Your satellite tracking list
STARLINK-5129
Track 1 satellite(s)




NASA's NSSDC Master Catalog

Two Line Element Set (TLE):
1 59310U 24056Q   25199.81585685 -.00000670  00000-0 -14836-4 0  9998
2 59310  43.0027 108.2785 0001557 255.6424 104.4254 15.27569523 75549
Source of the keplerian elements: AFSPC